Location: Gorze? G�rny
(49.8500°N, 19.5000°E)
Time: 12:59:22
(UTC+00:00)

Cosmos 1607 - Pass Details

Date: 13 May 2021
Orbit: 909 x 993 km, 65.0° (Epoch: 22 June)

Event Time Altitude Azimuth Distance (km) Brightness Sun altitude
Exits shadow 23:00:48 22° 238° (WSW) 1,997 5.3 -21.3°
Maximum altitude 23:05:04 65° 315° (NW) 1,083 4.3 -21.3°
Drops below altitude 10° 23:11:33 10° 37° (NE) 2,765 7.2 -21.1°
Sets 23:14:10 0° 41° (NE) 3,714 8.0 -21.1°
